Hourly Weather Kyzylorda

Today, 9 May, Sunday

Time Temperature Precipitation Wind Pressure Humidity
00:00 +21°C° 0 mm 5 mps 748 mmHg 45%
01:00 +20°C° 0 mm 4 mps 748 mmHg 48%
02:00 +20°C° 0.1 mm 4 mps 748 mmHg 50%
03:00 +19°C° 0.1 mm 4 mps 748 mmHg 52%
04:00 +18°C° 0.1 mm 3 mps 748 mmHg 55%
05:00 +19°C° 0 mm 4 mps 748 mmHg 53%
06:00 +19°C° 0 mm 5 mps 748 mmHg 51%
07:00 +20°C° 0 mm 6 mps 749 mmHg 49%
08:00 +21°C° 0 mm 6 mps 749 mmHg 44%
09:00 +23°C° 0 mm 7 mps 749 mmHg 39%
10:00 +24°C° 0 mm 7 mps 749 mmHg 33%
11:00 +26°C° 0 mm 8 mps 749 mmHg 30%
12:00 +26°C° 0 mm 8 mps 749 mmHg 27%
13:00 +27°C° 0 mm 8 mps 749 mmHg 24%
14:00 +27°C° 0 mm 8 mps 748 mmHg 24%
15:00 +27°C° 0 mm 8 mps 748 mmHg 24%
16:00 +27°C° 0 mm 8 mps 748 mmHg 24%
17:00 +26°C° 0 mm 7 mps 749 mmHg 24%
18:00 +24°C° 0 mm 6 mps 749 mmHg 24%
19:00 +23°C° 0 mm 5 mps 749 mmHg 25%
20:00 +22°C° 0 mm 4 mps 749 mmHg 27%
21:00 +21°C° 0 mm 3 mps 749 mmHg 28%
22:00 +22°C° 0 mm 1 mps 749 mmHg 30%
23:00 +21°C° 0 mm 1 mps 749 mmHg 31%

Tomorrow, 10 May, Monday

Time Temperature Precipitation Wind Pressure Humidity
00:00 +21°C° 0 mm 1 mps 749 mmHg 32%
01:00 +20°C° 0 mm 1 mps 749 mmHg 32%
02:00 +19°C° 0 mm 2 mps 749 mmHg 34%
03:00 +18°C° 0 mm 2 mps 749 mmHg 35%
04:00 +18°C° 0 mm 3 mps 749 mmHg 36%
05:00 +19°C° 0 mm 3 mps 749 mmHg 35%
06:00 +20°C° 0 mm 4 mps 750 mmHg 34%
07:00 +21°C° 0 mm 4 mps 750 mmHg 33%
08:00 +22°C° 0 mm 4 mps 750 mmHg 29%
09:00 +25°C° 0 mm 5 mps 750 mmHg 25%
10:00 +26°C° 0 mm 5 mps 750 mmHg 22%
11:00 +27°C° 0 mm 5 mps 749 mmHg 20%
12:00 +28°C° 0 mm 5 mps 749 mmHg 19%
13:00 +29°C° 0 mm 5 mps 749 mmHg 17%
14:00 +29°C° 0 mm 6 mps 749 mmHg 16%
15:00 +29°C° 0 mm 6 mps 748 mmHg 15%
16:00 +29°C° 0 mm 6 mps 748 mmHg 15%
17:00 +28°C° 0 mm 6 mps 748 mmHg 16%
18:00 +27°C° 0 mm 5 mps 748 mmHg 18%
19:00 +26°C° 0 mm 5 mps 748 mmHg 19%
20:00 +25°C° 0 mm 4 mps 749 mmHg 22%
21:00 +23°C° 0 mm 4 mps 749 mmHg 25%
22:00 +22°C° 0 mm 3 mps 749 mmHg 28%
23:00 +21°C° 0 mm 3 mps 749 mmHg 36%

Day after tomorrow, 11 May, Tuesday

Time Temperature Precipitation Wind Pressure Humidity
00:00 +20°C° 0 mm 4 mps 749 mmHg 44%
01:00 +19°C° 0 mm 4 mps 749 mmHg 51%
02:00 +19°C° 0 mm 4 mps 750 mmHg 54%
03:00 +18°C° 0 mm 4 mps 750 mmHg 57%
04:00 +17°C° 0 mm 4 mps 750 mmHg 60%
05:00 +18°C° 0 mm 4 mps 750 mmHg 58%
06:00 +17°C° 0 mm 5 mps 751 mmHg 57%
07:00 +17°C° 0 mm 6 mps 751 mmHg 55%
08:00 +20°C° 0 mm 5 mps 751 mmHg 51%
09:00 +21°C° 0 mm 5 mps 751 mmHg 47%
10:00 +22°C° 0 mm 5 mps 751 mmHg 42%
11:00 +23°C° 0 mm 5 mps 751 mmHg 39%
12:00 +25°C° 0 mm 5 mps 751 mmHg 36%
13:00 +26°C° 0 mm 5 mps 750 mmHg 32%
14:00 +27°C° 0 mm 5 mps 750 mmHg 31%
15:00 +27°C° 0 mm 4 mps 750 mmHg 30%
16:00 +28°C° 0 mm 4 mps 750 mmHg 29%
17:00 +27°C° 0 mm 5 mps 750 mmHg 31%
18:00 +27°C° 0 mm 6 mps 750 mmHg 32%
19:00 +26°C° 0 mm 7 mps 751 mmHg 34%
20:00 +26°C° 0 mm 6 mps 751 mmHg 35%
21:00 +24°C° 0 mm 6 mps 751 mmHg 35%
22:00 +24°C° 0 mm 6 mps 751 mmHg 36%
23:00 +23°C° 0 mm 6 mps 751 mmHg 38%

12 May, Wednesday

Time Temperature Precipitation Wind Pressure Humidity
00:00 +22°C° 0 mm 6 mps 751 mmHg 40%
01:00 +21°C° 0 mm 7 mps 751 mmHg 42%
02:00 +20°C° 0 mm 7 mps 752 mmHg 43%
03:00 +18°C° 0 mm 7 mps 752 mmHg 44%
04:00 +17°C° 0 mm 7 mps 752 mmHg 45%
05:00 +18°C° 0 mm 7 mps 753 mmHg 41%
06:00 +18°C° 0 mm 8 mps 753 mmHg 37%
07:00 +20°C° 0 mm 8 mps 753 mmHg 34%
08:00 +22°C° 0 mm 8 mps 753 mmHg 31%
09:00 +23°C° 0 mm 8 mps 753 mmHg 29%
10:00 +26°C° 0 mm 8 mps 754 mmHg 27%
11:00 +27°C° 0 mm 8 mps 753 mmHg 24%
12:00 +28°C° 0 mm 7 mps 753 mmHg 20%
13:00 +29°C° 0 mm 7 mps 753 mmHg 17%
14:00 +29°C° 0 mm 6 mps 753 mmHg 15%
15:00 +30°C° 0 mm 6 mps 752 mmHg 14%
16:00 +30°C° 0 mm 6 mps 752 mmHg 12%
17:00 +29°C° 0 mm 6 mps 752 mmHg 12%
18:00 +28°C° 0 mm 5 mps 752 mmHg 12%
19:00 +27°C° 0 mm 4 mps 752 mmHg 13%
20:00 +26°C° 0 mm 4 mps 752 mmHg 15%
21:00 +25°C° 0 mm 4 mps 752 mmHg 17%
22:00 +22°C° 0 mm 4 mps 751 mmHg 19%
23:00 +22°C° 0 mm 4 mps 751 mmHg 21%

13 May, Thursday

Time Temperature Precipitation Wind Pressure Humidity
00:00 +21°C° 0 mm 4 mps 751 mmHg 23%
01:00 +20°C° 0 mm 4 mps 751 mmHg 26%
02:00 +20°C° 0 mm 3 mps 751 mmHg 27%
03:00 +19°C° 0 mm 3 mps 751 mmHg 29%
04:00 +18°C° 0 mm 3 mps 751 mmHg 31%
05:00 +20°C° 0 mm 4 mps 751 mmHg 28%
06:00 +21°C° 0 mm 4 mps 752 mmHg 26%
07:00 +22°C° 0 mm 4 mps 752 mmHg 23%
08:00 +23°C° 0 mm 5 mps 752 mmHg 20%
09:00 +26°C° 0 mm 5 mps 752 mmHg 18%
10:00 +27°C° 0 mm 6 mps 751 mmHg 15%
11:00 +28°C° 0 mm 6 mps 751 mmHg 15%
12:00 +28°C° 0 mm 6 mps 751 mmHg 14%
13:00 +29°C° 0 mm 6 mps 751 mmHg 14%
14:00 +28°C° 0 mm 7 mps 751 mmHg 14%
15:00 +28°C° 0 mm 7 mps 751 mmHg 15%
16:00 +28°C° 0 mm 7 mps 750 mmHg 15%
17:00 +27°C° 0 mm 7 mps 750 mmHg 16%
18:00 +26°C° 0 mm 7 mps 751 mmHg 18%
19:00 +24°C° 0 mm 6 mps 751 mmHg 19%
20:00 +24°C° 0 mm 6 mps 751 mmHg 19%
21:00 +23°C° 0 mm 6 mps 750 mmHg 20%
22:00 +23°C° 0 mm 6 mps 750 mmHg 21%
23:00 +22°C° 0 mm 6 mps 750 mmHg 23%

14 May, Friday

Time Temperature Precipitation Wind Pressure Humidity
00:00 +21°C° 0 mm 5 mps 750 mmHg 25%
01:00 +20°C° 0 mm 5 mps 750 mmHg 27%
02:00 +19°C° 0 mm 5 mps 750 mmHg 28%
03:00 +17°C° 0 mm 5 mps 750 mmHg 30%
04:00 +17°C° 0 mm 5 mps 750 mmHg 32%
05:00 +19°C° 0 mm 6 mps 750 mmHg 31%
06:00 +19°C° 0 mm 6 mps 750 mmHg 31%
07:00 +20°C° 0 mm 7 mps 751 mmHg 30%
08:00 +23°C° 0 mm 8 mps 751 mmHg 25%
09:00 +26°C° 0 mm 9 mps 751 mmHg 19%
10:00 +28°C° 0 mm 9 mps 751 mmHg 13%
11:00 +28°C° 0 mm 10 mps 750 mmHg 12%
12:00 +29°C° 0 mm 10 mps 750 mmHg 11%
13:00 +29°C° 0 mm 11 mps 750 mmHg 10%
14:00 +29°C° 0 mm 11 mps 750 mmHg 10%
15:00 +29°C° 0 mm 11 mps 750 mmHg 10%
16:00 +29°C° 0 mm 11 mps 750 mmHg 9%
17:00 +29°C° 0 mm 10 mps 750 mmHg 10%
18:00 +28°C° 0 mm 9 mps 750 mmHg 11%
19:00 +28°C° 0 mm 8 mps 749 mmHg 12%
20:00 +27°C° 0 mm 9 mps 749 mmHg 13%
21:00 +26°C° 0 mm 10 mps 750 mmHg 15%
22:00 +26°C° 0 mm 11 mps 750 mmHg 17%
23:00 +24°C° 0 mm 11 mps 749 mmHg 18%
Show more